Location: Aero Crafter Incorporated Heliport
(33.1248°N, 96.5222°W)
Time: 19:48:29
(UTC+00:00)

Daily predictions for brighter satellites

Satellite Brightness Start Highest point End
(mag) Time Altitude Azimuth Time Altitude Azimuth Time Altitude Azimuth
Lacrosse 5 rocket 3.3 12:01:41 10° N 12:03:53 16° NE 12:06:03 10° E
Lacrosse 4 Rocket 3.9 12:02:07 10° NNE 12:04:43 17° ENE 12:07:16 10° E
Okean 1 Rocket 3.2 12:00:53 10° N 12:05:11 75° E 12:09:27 10° S
Meteor 2-17 Rocket 4.4 12:01:04 10° SSW 12:07:02 61° W 12:13:04 10° N
Hubble Space Telescope 2.2 12:03:53 10° SW 12:07:13 29° SSE 12:10:33 10° ESE
ATLAS 3B R/B 4.0 12:03:11 14° W 12:07:38 23° NW 12:13:39 10° N
Helios 1A Rocket 2.4 12:05:59 10° S 12:09:18 61° WSW 12:12:37 10° NNW
Sich 1 Rocket 3.6 12:05:24 10° N 12:09:54 87° E 12:14:21 10° S
Cosmos 968 Rocket 3.6 12:04:48 10° NNW 12:09:57 59° WSW 12:15:03 10° S
CENTAUR R/B 3.5 12:02:29 10° NNW 12:11:24 86° WSW 12:20:55 10° SSE
COSMO-SKYMED 1 2.4 12:08:20 10° S 12:12:25 73° WSW 12:16:33 10° NNW
Cosmos 1484 Rocket 2.4 12:12:09 10° N 12:15:38 67° WNW 12:19:04 10° SSW
IRS-1D 4.4 12:15:48 10° NNW 12:19:43 24° WNW 12:23:38 10° WSW
SL-8 R/B 3.8 12:15:36 10° WSW 12:20:15 54° NW 12:24:56 10° NE
CZ-3 R/B 2.3 12:08:45 10° W 12:22:31 61° S 12:27:26 10° ESE
IGS 5A 3.3 12:23:37 10° N 12:27:35 77° WNW 12:31:32 10° SSW
OAO 1 Rocket 4.5 12:23:36 10° W 12:28:53 76° N 12:34:10 10° E
Cosmos 1741 Rocket 4.2 12:24:40 10° NNW 12:29:49 53° WSW 12:34:55 10° S
Cosmos 1302 Rocket 4.4 12:25:05 10° SW 12:29:52 38° WNW 12:34:41 10° N
Cosmos 1975 Rocket 3.4 12:26:11 10° S 12:30:25 68° E 12:34:41 10° NNE
USA 234 3.8 12:24:46 10° ESE 12:31:10 59° NE 12:37:35 10° NW
Cosmos 1992 Rocket 4.0 12:29:17 10° SSW 12:34:27 70° WNW 12:39:39 10° NNE
Tsikada Rocket 4.1 12:31:08 10° SSW 12:37:25 73° W 12:43:49 10° N
